Satellite: NOAA-16
Catalog number: 26536
Epoch time:      08002.66969961
Element set:    0744
Inclination:      099.1420 deg
RA of node:       348.3290 deg
Eccentricity:    0.0010251
Arg of perigee:   337.7608 deg
Mean anomaly:     022.3133 deg
Mean motion:   14.12462729 rev/day
Decay rate:       -8.7e-07 rev/day^2
Epoch rev:           37526
Checksum:              305

Satellite: NOAA-17
Catalog number: 27453
Epoch time:      08002.87175747
Element set:    0741
Inclination:      098.5586 deg
RA of node:       072.1540 deg
Eccentricity:    0.0011105
Arg of perigee:   229.6340 deg
Mean anomaly:     130.3867 deg
Mean motion:   14.23937747 rev/day
Decay rate:        7.3e-07 rev/day^2
Epoch rev:           28713
Checksum:              308

Satellite: NOAA-18
Catalog number: 28654
Epoch time:      08002.85453576
Element set:    0255
Inclination:      098.8514 deg
RA of node:       305.9842 deg
Eccentricity:    0.0015261
Arg of perigee:   064.9550 deg
Mean anomaly:     295.3207 deg
Mean motion:   14.11123867 rev/day
Decay rate:      -1.40e-06 rev/day^2
Epoch rev:           13501
Checksum:              297

/EX
SB KEPS @ AMSAT  $ORB08003.M
Orbital Elements  08003.MISC

HR AMSAT ORBITAL ELEMENTS FOR MANNED AND MISCELLANEOUS SATELLITES
FROM WA5QGD FORT WORTH,TX January 3, 2008
Send Subscribe/unsubscribe to KEPS at 
http://www.amsat.org/mailman/listinfo/keps
BID: ORB08003.M
TO ALL RADIO AMATEURS BT

Satellite: HUBBLE
Catalog number: 20580
Epoch time:      08002.97699398
Element set:    0044
Inclination:      028.4695 deg
RA of node:       327.2448 deg
Eccentricity:    0.0003781
Arg of perigee:   063.7898 deg
Mean anomaly:     296.3080 deg
Mean motion:   15.00321266 rev/day
Decay rate:       2.90e-06 rev/day^2
Epoch rev:           76999
Checksum:              331

Satellite: UARS
Catalog number: 21701
Epoch time:      08002.94201162
Element set:    0258
Inclination:      056.9726 deg
RA of node:       165.9136 deg
Eccentricity:    0.0084913
Arg of perigee:   215.0105 deg
Mean anomaly:     144.5353 deg
Mean motion:   15.50068229 rev/day
Decay rate:      5.226e-05 rev/day^2
Epoch rev:           89670
Checksum:              282

Satellite: PO-34
Catalog number: 25520
Epoch time:      08002.90117372
Element set:     901
Inclination:      028.4597 deg
RA of node:       211.9834 deg
Eccentricity:    0.0005255
Arg of perigee:   270.4070 deg
Mean anomaly:     089.5927 deg
Mean motion:   15.17108592 rev/day
Decay rate:       3.94e-06 rev/day^2
Epoch rev:           50788
Checksum:              304

Satellite: ISS
Catalog number: 25544
Epoch time:      08002.89295425
Element set:    0633
Inclination:      051.6378 deg
RA of node:       154.0332 deg
Eccentricity:    0.0002185
Arg of perigee:   028.3265 deg
Mean anomaly:     108.9255 deg
Mean motion:   15.78270614 rev/day
Decay rate:     1.3774e-04 rev/day^2
Epoch rev:           52228
Checksum:              295

Satellite: OO-38
Catalog number: 26063
Epoch time:      08002.74656800
Element set:    0102
Inclination:      100.2153 deg
RA of node:       047.1394 deg
Eccentricity:    0.0036659
Arg of perigee:   318.7541 deg
Mean anomaly:     041.0864 deg
Mean motion:   14.35824149 rev/day
Decay rate:       -2.7e-07 rev/day^2
Epoch rev:           41568
Checksum:              284

Satellite: UWE-1
Catalog number: 28892
Epoch time:      08002.63891578
Element set:    0939
Inclination:      098.1130 deg
RA of node:       260.0837 deg
Eccentricity:    0.0016717
Arg of perigee:   206.9887 deg
Mean anomaly:     153.0441 deg
Mean motion:   14.59579211 rev/day
Decay rate:       2.27e-06 rev/day^2
Epoch rev:           11630
Checksum:              312

Satellite: CO-58
Catalog number: 28895
Epoch time:      08002.40590657
Element set:    0913
Inclination:      098.1160 deg
RA of node:       260.1450 deg
Eccentricity:    0.0017385
Arg of perigee:   207.4780 deg
Mean anomaly:     152.5471 deg
Mean motion:   14.59620617 rev/day
Decay rate:        5.9e-07 rev/day^2
Epoch rev:           11615
Checksum:              304

Satellite: NCUBE2
Catalog number: 28897
Epoch time:      08003.69205203
Element set:     443
Inclination:      098.1141 deg
RA of node:       261.3438 deg
Eccentricity:    0.0016724
Arg of perigee:   205.4915 deg
Mean anomaly:     154.5473 deg
Mean motion:   14.59788599 rev/day
Decay rate:       1.17e-06 rev/day^2
Epoch rev:           10862
Checksum:              311

Satellite: FCAL
Catalog number: 29667
Epoch time:      08003.71660486
Element set:     636
Inclination:      051.6310 deg
RA of node:       116.2252 deg
Eccentricity:    0.0010051
Arg of perigee:   053.2691 deg
Mean anomaly:     306.9244 deg
Mean motion:   15.97998611 rev/day
Decay rate:     2.8431e-04 rev/day^2
Epoch rev:            5995
Checksum:              299

Satellite: FALCON
Catalog number: 30776
Epoch time:      08002.56695501
Element set:    0233
Inclination:      035.4326 deg
RA of node:       083.8925 deg
Eccentricity:    0.0001613
Arg of perigee:   352.7363 deg
Mean anomaly:     007.3329 deg
Mean motion:   15.02838776 rev/day
Decay rate:       2.84e-06 rev/day^2
Epoch rev:           04506
Checksum:              285

